[[{"header":{"parameterUnit":"m.s-1","parameterCategory":1,"la1":30.2991,"la2":30.254,"lo1":-89.0895,"lo2":-89.0444,"dy":0.0017,"dx":0.0017,"nx":28,"ny":28,"refTime":"2024-07-01T03:00:00:Z","depth":0,"parameterNumber":2,"parameterNumberName":"U-component_of_WINDS"},"data":[0,0,0,0,0,0,0,0,0,0,0,0,0,0,0,0,0,0,0,0,0,0,0,0,0,0,0,0,0,0,0,0,0,0,0,0,0,0,0,0,0,0,0,0,0,0,0,0,0,0,0,0,0,0,0,0,0,0,-1.82,-1.82,0,-1.8172,-1.8172,-1.8172,-1.8152,-1.8152,-1.8152,-1.8152,-1.8122,-1.8121,-1.812,0,0,0,0,0,0,0,0,0,0,0,0,0,-1.8236,-1.8236,-1.82,-1.82,-1.82,-1.8172,-1.8172,-1.8172,-1.8152,-1.8152,-1.8152,-1.8152,-1.8122,-1.8121,-1.812,0,0,0,0,0,0,0,0,0,0,0,0,0,-1.8216,-1.8235,-1.82,-1.8187,-1.8185,-1.8173,-1.8172,-1.8172,-1.8152,-1.8152,-1.8152,-1.8152,-1.8122,-1.8121,-1.812,-1.8119,0,0,-1.8117,-1.8117,0,0,0,0,0,0,0,0,-1.8217,-1.8214,-1.8189,-1.8188,-1.8186,-1.8166,-1.8174,-1.8154,-1.8152,-1.8165,-1.8152,-1.8152,-1.8136,-1.8134,-1.8129,-1.8117,-1.8116,-1.8117,-1.8117,-1.8116,-1.8116,0,0,0,0,0,0,0,-1.8218,-1.8215,-1.8189,-1.8189,-1.8187,-1.8182,-1.8179,-1.817,-1.8152,-1.8164,-1.8162,-1.8159,-1.8135,-1.813,-1.8129,-1.8115,-1.8117,-1.8116,-1.8116,-1.8115,-1.8101,-1.8101,0,0,0,0,0,0,-1.8222,-1.8217,-1.819,-1.8188,-1.8201,-1.8181,-1.8178,-1.8172,-1.8152,-1.8149,-1.8159,-1.8158,-1.8132,-1.813,-1.8127,-1.8124,-1.8116,-1.8115,-1.8115,-1.8101,-1.8101,-1.8101,0,0,0,0,0,0,-1.8223,-1.822,-1.8191,-1.8202,-1.8198,-1.8181,-1.8175,-1.8172,-1.8167,-1.8149,-1.8146,-1.8158,-1.8132,-1.8129,-1.8121,-1.8123,-1.8115,-1.8114,-1.8101,-1.8101,-1.8101,-1.8118,0,0,0,0,0,0,-1.8224,-1.822,-1.8219,-1.8202,-1.8198,-1.8186,-1.8175,-1.8171,-1.8165,-1.8164,-1.8146,-1.8143,-1.8132,-1.8123,-1.812,-1.8121,-1.8113,-1.81,-1.8101,-1.8101,-1.8117,-1.8119,-1.812,0,0,0,0,0,-1.8225,-1.8225,-1.8219,-1.8216,-1.8196,-1.8186,-1.8183,-1.817,-1.8166,-1.8164,-1.8153,-1.8144,-1.8124,-1.8122,-1.8119,-1.812,-1.81,-1.8101,-1.8101,-1.8116,-1.8118,-1.812,0,0,0,0,0,0,-1.8241,-1.8222,-1.8216,-1.821,-1.82,-1.8182,-1.8181,-1.8172,-1.8163,-1.8162,-1.8146,-1.8142,-1.8136,-1.8127,-1.8126,-1.8118,-1.8111,-1.8111,-1.8123,-1.8125,-1.8127,-1.8128,-1.8112,0,0,0,0,0,-1.8245,-1.8238,-1.8221,-1.8217,-1.8213,-1.8198,-1.8193,-1.8184,-1.8172,-1.8168,-1.8156,-1.8145,-1.8136,-1.813,-1.8121,-1.8116,-1.8112,-1.8116,-1.8117,-1.8119,-1.8118,-1.8116,-1.8117,-1.8103,-1.8103,-1.8103,0,0,-1.825,-1.8239,-1.8235,-1.822,-1.8211,-1.8205,-1.8194,-1.8187,-1.8182,-1.8166,-1.8158,-1.815,-1.8136,-1.813,-1.8127,-1.8123,-1.8122,-1.8119,-1.812,-1.8119,-1.8116,-1.8118,-1.8119,-1.8103,-1.8103,-1.8103,0,0,-1.8257,-1.8248,-1.8244,-1.8236,-1.8223,-1.8213,-1.8212,-1.8197,-1.819,-1.8182,-1.8171,-1.8164,-1.8149,-1.8141,-1.8134,-1.814,-1.8131,-1.8137,-1.8145,-1.8142,-1.8144,-1.8144,-1.8146,-1.8147,-1.8137,-1.8137,-1.8137,0,-1.8266,-1.8255,-1.8243,-1.8237,-1.8231,-1.8218,-1.8214,-1.8206,-1.819,-1.8186,-1.8182,-1.8164,-1.8154,-1.8146,-1.8148,-1.8143,-1.8141,-1.8138,-1.8145,-1.8145,-1.8146,-1.8147,-1.8148,-1.8138,-1.8138,-1.8138,-1.8138,0,-1.8267,-1.826,-1.8258,-1.8245,-1.8238,-1.8233,-1.822,-1.8216,-1.8208,-1.8199,-1.8191,-1.8179,-1.8167,-1.8165,-1.8157,-1.8156,-1.8154,-1.8148,-1.814,-1.8148,-1.8149,-1.815,-1.8139,-1.8139,-1.8139,-1.8139,0,0,-1.8281,-1.8262,-1.8262,-1.8256,-1.8241,-1.8235,-1.823,-1.822,-1.8216,-1.8206,-1.8201,-1.819,-1.8184,-1.8177,-1.8168,-1.8166,-1.8171,-1.816,-1.8159,-1.8162,-1.817,-1.8174,-1.8175,-1.8166,-1.8166,-1.8166,-1.8171,0,-1.8286,-1.8276,-1.8266,-1.8259,-1.8253,-1.8241,-1.8237,-1.8227,-1.8219,-1.8212,-1.8203,-1.8195,-1.8188,-1.8184,-1.8182,-1.8171,-1.8173,-1.8171,-1.8161,-1.816,-1.8164,-1.8176,-1.818,-1.8185,-1.8171,-1.8171,-1.8171,0,-1.8289,-1.8281,-1.8275,-1.8262,-1.8258,-1.8255,-1.8245,-1.8239,-1.8228,-1.8222,-1.8215,-1.8206,-1.82,-1.8194,-1.8186,-1.8185,-1.818,-1.8175,-1.8174,-1.8172,-1.8166,-1.8173,-1.8186,-1.8187,-1.8172,-1.8172,-1.8172,0,-1.83,-1.8288,-1.8282,-1.8278,-1.8262,-1.826,-1.8253,-1.8243,-1.8237,-1.8229,-1.8225,-1.8216,-1.821,-1.8203,-1.8192,-1.8189,-1.8185,-1.8178,-1.8179,-1.818,-1.8178,-1.8178,-1.819,-1.8177,-1.8177,-1.8177,-1.8177,0,-1.8306,-1.8302,-1.8287,-1.8284,-1.828,-1.8268,-1.8264,-1.8256,-1.8247,-1.8242,-1.8231,-1.8227,-1.8212,-1.8206,-1.8197,-1.8192,-1.8189,-1.8184,-1.8182,-1.8185,-1.8185,-1.8181,-1.818,-1.8177,-1.8177,-1.8177,-1.8177,0,-1.8317,-1.8307,-1.83,-1.8287,-1.8284,-1.8281,-1.827,-1.8266,-1.8258,-1.8251,-1.8249,-1.8236,-1.8228,-1.8217,-1.8205,-1.8199,-1.8195,-1.8191,-1.8198,-1.8197,-1.8199,-1.8199,-1.8208,-1.8208,-1.8195,-1.8195,-1.8195,0,-1.8321,-1.8318,-1.8305,-1.8301,-1.8295,-1.8289,-1.8284,-1.8273,-1.8268,-1.8256,-1.8254,-1.8246,-1.8238,-1.8226,-1.8215,-1.8207,-1.8202,-1.8206,-1.8201,-1.8204,-1.8202,-1.8202,-1.8202,-1.8207,-1.8207,-1.8207,-1.8208,0,-1.8329,-1.8324,-1.8318,-1.831,-1.8304,-1.8297,-1.8289,-1.8287,-1.8274,-1.8269,-1.8261,-1.8255,-1.8244,-1.8236,-1.8226,-1.8219,-1.8211,-1.821,-1.8209,-1.8212,-1.8216,-1.8214,-1.8201,-1.8209,-1.8209,-1.8209,-1.8209,-1.8209,-1.8336,-1.8333,-1.8324,-1.8317,-1.831,-1.8304,-1.83,-1.8292,-1.8285,-1.8276,-1.827,-1.8262,-1.8252,-1.8239,-1.8232,-1.8226,-1.8223,-1.8222,-1.8222,-1.8222,-1.8223,-1.8218,-1.8224,-1.8224,-1.8224,-1.8224,-1.8224,0,-1.8343,-1.8337,-1.8331,-1.8321,-1.8316,-1.831,-1.8302,-1.8297,-1.8291,-1.8283,-1.8276,-1.8268,-1.826,-1.825,-1.8241,-1.8238,-1.8234,-1.8236,-1.8236,-1.8234,-1.8227,-1.8228,-1.824,-1.824,-1.824,-1.824,-1.824,-1.824,-1.8346,-1.8341,-1.8336,-1.8327,-1.8321,-1.8314,-1.831,-1.8304,-1.8298,-1.8289,-1.8283,-1.8276,-1.8267,-1.8258,-1.8251,-1.8248,-1.8245,-1.8248,-1.8244,-1.8236,-1.8235,-1.8234,-1.8234,-1.8247,-1.8247,-1.8252,-1.8252,-1.8252]},{"header":{"parameterUnit":"m.s-1","parameterCategory":1,"la1":30.2991,"la2":30.254,"lo1":-89.0895,"lo2":-89.0444,"dy":0.0017,"dx":0.0017,"nx":28,"ny":28,"refTime":"2024-07-01T03:00:00:Z","depth":0,"parameterNumber":3,"parameterNumberName":"V-component_of_WINDS"},"data":[0,0,0,0,0,0,0,0,0,0,0,0,0,0,0,0,0,0,0,0,0,0,0,0,0,0,0,0,0,0,0,0,0,0,0,0,0,0,0,0,0,0,0,0,0,0,0,0,0,0,0,0,0,0,0,0,0,0,-0.713,-0.713,0,-0.7111,-0.711,-0.711,-0.7087,-0.7087,-0.7087,-0.7086,-0.7065,-0.7065,-0.7065,0,0,0,0,0,0,0,0,0,0,0,0,0,-0.7147,-0.7147,-0.7131,-0.713,-0.713,-0.7111,-0.711,-0.711,-0.7088,-0.7087,-0.7087,-0.7086,-0.7065,-0.7065,-0.7065,0,0,0,0,0,0,0,0,0,0,0,0,0,-0.7135,-0.7147,-0.7131,-0.7116,-0.7115,-0.7111,-0.711,-0.711,-0.7088,-0.7087,-0.7087,-0.7086,-0.7065,-0.7065,-0.7065,-0.7073,0,0,-0.7063,-0.7063,0,0,0,0,0,0,0,0,-0.7136,-0.7134,-0.7119,-0.7117,-0.7116,-0.7101,-0.7109,-0.7097,-0.7088,-0.7098,-0.7086,-0.7086,-0.7077,-0.7076,-0.7073,-0.7072,-0.7071,-0.7063,-0.7063,-0.7063,-0.7063,0,0,0,0,0,0,0,-0.7137,-0.7135,-0.7123,-0.7119,-0.7117,-0.7111,-0.7108,-0.7106,-0.7091,-0.7097,-0.7095,-0.7093,-0.7077,-0.7074,-0.7073,-0.707,-0.7063,-0.7063,-0.7063,-0.7063,-0.7073,-0.7074,0,0,0,0,0,0,-0.714,-0.7136,-0.7123,-0.7122,-0.7125,-0.7111,-0.7108,-0.7106,-0.7091,-0.7088,-0.7094,-0.7092,-0.7075,-0.7073,-0.7072,-0.708,-0.7063,-0.7063,-0.7062,-0.7073,-0.7073,-0.7074,0,0,0,0,0,0,-0.714,-0.7139,-0.7124,-0.7129,-0.7126,-0.7111,-0.7109,-0.7106,-0.7103,-0.7088,-0.7085,-0.7094,-0.7074,-0.7072,-0.7073,-0.7079,-0.7063,-0.7062,-0.7072,-0.7073,-0.7074,-0.7097,0,0,0,0,0,0,-0.7141,-0.7139,-0.7142,-0.7129,-0.7126,-0.7126,-0.7109,-0.7106,-0.7103,-0.7101,-0.7088,-0.7085,-0.7074,-0.7073,-0.7072,-0.7078,-0.7062,-0.7072,-0.7073,-0.7073,-0.7096,-0.7098,-0.7101,0,0,0,0,0,-0.7141,-0.715,-0.7143,-0.7141,-0.713,-0.7126,-0.7124,-0.7112,-0.7104,-0.7107,-0.7097,-0.7085,-0.7078,-0.7073,-0.7072,-0.7078,-0.7071,-0.7072,-0.7073,-0.7094,-0.7098,-0.7101,0,0,0,0,0,0,-0.7164,-0.7148,-0.714,-0.7144,-0.7137,-0.7122,-0.7126,-0.7116,-0.711,-0.7109,-0.7092,-0.7089,-0.7092,-0.7085,-0.7079,-0.7085,-0.7073,-0.7074,-0.7089,-0.7093,-0.7095,-0.7097,-0.7062,0,0,0,0,0,-0.717,-0.7168,-0.7154,-0.7159,-0.7155,-0.7141,-0.7139,-0.713,-0.7121,-0.7118,-0.7108,-0.71,-0.7096,-0.7094,-0.7089,-0.7094,-0.7091,-0.7097,-0.71,-0.7102,-0.7104,-0.7105,-0.7108,-0.7078,-0.7078,-0.7078,0,0,-0.7181,-0.7172,-0.7172,-0.7163,-0.7156,-0.7155,-0.7139,-0.7138,-0.7137,-0.7118,-0.7118,-0.711,-0.71,-0.7102,-0.7103,-0.7097,-0.7111,-0.7104,-0.7106,-0.7106,-0.7107,-0.711,-0.7112,-0.7078,-0.7078,-0.7078,0,0,-0.7201,-0.7194,-0.7198,-0.7191,-0.7181,-0.7171,-0.7172,-0.7159,-0.7154,-0.7153,-0.7139,-0.7136,-0.713,-0.7123,-0.7119,-0.7136,-0.7125,-0.7134,-0.7149,-0.7151,-0.7153,-0.7155,-0.7161,-0.7164,-0.7136,-0.7136,-0.7136,0,-0.7217,-0.7215,-0.72,-0.7201,-0.7197,-0.718,-0.7183,-0.7177,-0.7166,-0.7164,-0.7157,-0.7148,-0.714,-0.714,-0.7144,-0.7141,-0.7142,-0.7136,-0.7154,-0.7156,-0.7158,-0.7163,-0.7166,-0.7137,-0.7137,-0.7137,-0.7136,0,-0.7234,-0.7233,-0.7237,-0.7227,-0.7223,-0.7225,-0.7211,-0.7209,-0.7199,-0.719,-0.7189,-0.7179,-0.7172,-0.7171,-0.7162,-0.717,-0.7167,-0.7157,-0.7145,-0.7162,-0.7167,-0.7169,-0.7139,-0.7138,-0.7138,-0.7138,0,0,-0.727,-0.7251,-0.7253,-0.7248,-0.7235,-0.7234,-0.7234,-0.7228,-0.7226,-0.7219,-0.7219,-0.7213,-0.7204,-0.7199,-0.7189,-0.719,-0.7204,-0.718,-0.718,-0.7186,-0.7213,-0.7221,-0.7224,-0.7197,-0.7197,-0.7197,-0.7214,0,-0.7288,-0.7289,-0.7275,-0.7279,-0.7278,-0.7261,-0.7261,-0.7253,-0.7244,-0.7241,-0.7231,-0.7227,-0.7215,-0.7212,-0.7213,-0.7203,-0.721,-0.7201,-0.7196,-0.7197,-0.7201,-0.7226,-0.7235,-0.7251,-0.7216,-0.7216,-0.7216,0,-0.731,-0.7304,-0.7308,-0.7295,-0.7294,-0.7295,-0.7287,-0.7284,-0.7274,-0.7268,-0.7262,-0.725,-0.7249,-0.7237,-0.7235,-0.7229,-0.7226,-0.7221,-0.7221,-0.7221,-0.7208,-0.7228,-0.7256,-0.7259,-0.7219,-0.7219,-0.7219,0,-0.7336,-0.7329,-0.7331,-0.7327,-0.7311,-0.7312,-0.7306,-0.7295,-0.7292,-0.7285,-0.7283,-0.7275,-0.7272,-0.7266,-0.7252,-0.7245,-0.7252,-0.7239,-0.7246,-0.7247,-0.7249,-0.725,-0.7279,-0.7246,-0.7246,-0.7246,-0.7246,0,-0.7359,-0.7362,-0.7342,-0.7343,-0.7346,-0.733,-0.7333,-0.7325,-0.7315,-0.7314,-0.7298,-0.7297,-0.7279,-0.7275,-0.7264,-0.7264,-0.7262,-0.7257,-0.7254,-0.7259,-0.726,-0.7257,-0.7256,-0.7247,-0.7247,-0.7247,-0.7246,0,-0.7389,-0.7376,-0.7376,-0.7361,-0.7357,-0.736,-0.7347,-0.7347,-0.7337,-0.7335,-0.7334,-0.7318,-0.7313,-0.7298,-0.7289,-0.7282,-0.7285,-0.728,-0.7289,-0.7287,-0.7296,-0.7296,-0.7325,-0.7328,-0.7293,-0.7294,-0.7294,0,-0.7405,-0.7407,-0.7392,-0.739,-0.7385,-0.7382,-0.7378,-0.7362,-0.7359,-0.7348,-0.7349,-0.7343,-0.7337,-0.733,-0.7317,-0.731,-0.7304,-0.7315,-0.7303,-0.7308,-0.7305,-0.7305,-0.7305,-0.7318,-0.7318,-0.7319,-0.7319,0,-0.7435,-0.7428,-0.7424,-0.7417,-0.7413,-0.7407,-0.74,-0.7399,-0.7381,-0.7378,-0.7373,-0.7369,-0.736,-0.7354,-0.7345,-0.7337,-0.7325,-0.7323,-0.7324,-0.733,-0.7335,-0.7333,-0.7297,-0.7322,-0.7322,-0.7322,-0.7322,-0.7322,-0.7458,-0.7459,-0.7449,-0.7445,-0.7438,-0.7431,-0.7431,-0.742,-0.7416,-0.7408,-0.7398,-0.7394,-0.7383,-0.737,-0.7363,-0.7359,-0.7353,-0.7355,-0.7355,-0.7356,-0.7359,-0.7335,-0.7357,-0.7357,-0.7357,-0.7357,-0.7357,0,-0.7488,-0.748,-0.7476,-0.7467,-0.7464,-0.7452,-0.7444,-0.7441,-0.7438,-0.7429,-0.7424,-0.7418,-0.7412,-0.7398,-0.739,-0.739,-0.7384,-0.7389,-0.7389,-0.7387,-0.7365,-0.7365,-0.7393,-0.7393,-0.7393,-0.7393,-0.7393,-0.7393,-0.7503,-0.7504,-0.7496,-0.7493,-0.7485,-0.7482,-0.7478,-0.7471,-0.7464,-0.7458,-0.7453,-0.7444,-0.7433,-0.7424,-0.7418,-0.7414,-0.7412,-0.7419,-0.7413,-0.7392,-0.7389,-0.7386,-0.7385,-0.7418,-0.7418,-0.7436,-0.7436,-0.7436]}]]